{"data":{"norad_id":63003,"intl_designator":"2025-009DN","name":"FOSSASAT-2E20 (TAT-O)","alt_names":[],"object_type":"PAYLOAD","status":"ACTIVE","operator":null,"country":"SPN","launch_date":"2025-01-14","launch_site_code":"AFWTR","launch_vehicle":null,"mission":null,"orbit_class":"UNKNOWN","rcs_meters":null,"size_class":null,"mass_kg":null,"dimensions":null,"purposes":[],"wikipedia_slug":null,"has_3d_model":false,"image_url":null,"decayed_at":null,"tle_current":{"epoch":"2026-09-22T16:21:31.352832Z","epoch_age_seconds":126861,"freshness":"FRESH","line1":"1 63003U 25009DN  26265.68161288  .00009600  00000+0  31388-3 0  9999","line2":"2 63003  97.3092 340.1583 0002495  15.4169 344.7148 15.31920715151422","mean_motion":15.31920715,"eccentricity":0.0002495,"inclination_deg":97.3092,"raan_deg":340.1583,"arg_perigee_deg":15.4169,"mean_anomaly_deg":344.7148,"bstar":0.00031388,"rev_number":15142,"period_min":93.99964279483,"perigee_km":468.37350361815,"apogee_km":471.79076496617,"semimajor_km":6848.2191342922,"source":"CELESTRAK","updated_at":"2026-09-23T09:00:21.743818Z"}}}